| time (UTC) | temp F | wind direction | speed knots | gust knots | rain 1hr in | rain 24hr in | rain mn in | humidity % | barometer mb |
| 20260906200012 | 80 | 0.0 | 0.0 | 0.00 | 0.02 | 0.01 | 74 | 1014.2 | |
| 20260906194510 | 80 | 0.0 | 0.0 | 0.00 | 0.02 | 0.01 | 74 | 1014.2 | |
| 20260906193009 | 80 | 0.0 | 0.0 | 0.00 | 0.02 | 0.01 | 75 | 1014.2 | |
| 20260906191508 | 80 | 0.0 | 0.0 | 0.00 | 0.02 | 0.01 | 78 | 1014.4 | |
| 20260906190005 | 79 | 0.0 | 0.0 | 0.00 | 0.02 | 0.01 | 78 | 1014.6 | |
| 20260906184503 | 79 | 0.0 | 0.0 | 0.00 | 0.02 | 0.01 | 79 | 1014.5 | |
| 20260906183005 | 78 | 0.0 | 0.0 | 0.00 | 0.02 | 0.01 | 79 | 1014.7 | |
| 20260906181612 | 78 | 0.0 | 0.0 | 0.00 | 0.02 | 0.01 | 79 | 1014.9 | |
| 20260906180115 | 77 | 0.0 | 0.0 | 0.00 | 0.02 | 0.01 | 82 | 1015.1 | |
| 20260906174556 | 76 | 0.0 | 0.0 | 0.00 | 0.02 | 0.01 | 84 | 1015.2 | |
| 20260906173049 | 75 | 0.0 | 0.0 | 0.00 | 0.02 | 0.01 | 86 | 1015.8 | |
| 20260906171545 | 73 | 0.0 | 0.0 | 0.00 | 0.02 | 0.01 | 91 | 1015.9 | |
| 20260906170042 | 72 | 0.0 | 0.0 | 0.00 | 0.02 | 0.01 | 95 | 1015.8 | |
| 20260906164537 | 70 | 0.0 | 0.0 | 0.00 | 0.03 | 0.01 | 98 | 1016.4 | |
| 20260906163037 | 69 | 0.0 | 0.0 | 0.00 | 0.03 | 0.01 | 99 | 1016.5 | |
| 20260906161534 | 68 | 0.0 | 0.0 | 0.00 | 0.03 | 0.01 | 99 | 1016.6 | |
| 20260906160031 | 67 | 0.0 | 0.0 | 0.00 | 0.03 | 0.01 | 98 | 1016.4 | |
| 20260906154531 | 66 | 0.0 | 0.0 | 0.00 | 0.03 | 0.01 | 98 | 1016.6 | |
| 20260906153028 | 65 | 0.0 | 0.0 | 0.00 | 0.03 | 0.01 | 98 | 1016.5 | |
| 20260906151533 | 65 | 0.0 | 0.0 | 0.00 | 0.03 | 0.01 | 98 | 1016.5 | |
| 20260906150028 | 65 | 0.0 | 0.0 | 0.00 | 0.03 | 0.01 | 98 | 1016.7 | |
| 20260906144528 | 66 | 0.0 | 0.0 | 0.00 | 0.03 | 0.01 | 98 | 1016.6 | |
| 20260906143027 | 66 | 0.0 | 0.0 | 0.00 | 0.03 | 0.01 | 98 | 1016.5 | |
| 20260906141528 | 66 | 0.0 | 0.0 | 0.00 | 0.03 | 0.01 | 98 | 1016.4 | |
| 20260906140036 | 66 | 0.0 | 0.0 | 0.01 | 0.03 | 0.01 | 98 | 1015.3 | |
| 20260906134526 | 66 | 0.0 | 0.0 | 0.01 | 0.03 | 0.01 | 98 | 1015.3 | |
| 20260906133025 | 65 | 0.0 | 0.0 | 0.01 | 0.03 | 0.01 | 98 | 1015.8 | |
| 20260906131524 | 65 | 0.0 | 0.0 | 0.01 | 0.03 | 0.01 | 98 | 1016.3 | |
| 20260906130028 | 65 | 0.0 | 0.0 | 0.00 | 0.02 | 0.00 | 98 | 1015.2 | |
| 20260906124523 | 64 | 0.0 | 0.0 | 0.00 | 0.02 | 0.00 | 98 | 1016.2 | |
| 20260906123032 | 64 | 0.0 | 0.0 | 0.00 | 0.02 | 0.00 | 98 | 1016.0 | |
| 20260906121535 | 64 | 0.0 | 0.0 | 0.00 | 0.02 | 0.00 | 98 | 1015.7 | |
| 20260906120022 | 64 | 0.0 | 0.0 | 0.00 | 0.02 | 0.00 | 98 | 1016.3 | |
| 20260906114529 | 64 | 0.0 | 0.0 | 0.00 | 0.02 | 0.00 | 98 | 1016.6 | |
| 20260906113039 | 64 | 0.0 | 0.0 | 0.00 | 0.02 | 0.00 | 98 | 1017.0 | |
| 20260906111523 | 64 | 0.0 | 0.0 | 0.00 | 0.02 | 0.00 | 98 | 1016.6 | |
| 20260906110020 | 64 | 0.0 | 0.0 | 0.00 | 0.02 | 0.00 | 98 | 1016.2 | |
| 20260906104527 | 64 | 0.0 | 0.0 | 0.00 | 0.02 | 0.00 | 98 | 1016.4 | |
| 20260906103018 | 64 | 0.0 | 0.0 | 0.00 | 0.02 | 0.00 | 98 | 1015.2 | |
| 20260906101519 | 64 | 0.0 | 0.0 | 0.00 | 0.02 | 0.00 | 98 | 1015.1 | |
| 20260906100020 | 63 | 0.0 | 0.0 | 0.00 | 0.02 | 0.00 | 97 | 1015.1 | |
| 20260906094518 | 63 | 0.0 | 0.0 | 0.00 | 0.02 | 0.00 | 97 | 1015.1 | |
| 20260906093018 | 63 | 0.0 | 0.0 | 0.00 | 0.02 | 0.00 | 97 | 1014.9 | |
| 20260906091529 | 63 | 0.0 | 0.0 | 0.00 | 0.02 | 0.00 | 97 | 1014.8 | |
| 20260906090017 | 63 | 0.0 | 0.0 | 0.00 | 0.02 | 0.00 | 97 | 1015.5 | |
| 20260906084517 | 63 | 0.0 | 0.0 | 0.00 | 0.02 | 0.00 | 97 | 1015.5 | |
| 20260906083016 | 63 | 0.0 | 0.0 | 0.00 | 0.02 | 0.00 | 97 | 1014.7 | |
| 20260906081520 | 63 | 0.0 | 0.0 | 0.00 | 0.02 | 0.00 | 97 | 1015.0 | |
| 20260906080014 | 63 | 0.0 | 0.0 | 0.00 | 0.02 | 0.00 | 97 | 1015.4 | |
| 20260906074519 | 63 | 0.0 | 0.0 | 0.00 | 0.03 | 0.00 | 97 | 1015.5 | |
| 20260906073011 | 63 | 0.0 | 0.0 | 0.00 | 0.03 | 0.00 | 96 | 1015.7 | |
| 20260906071511 | 63 | 0.0 | 0.0 | 0.00 | 0.03 | 0.00 | 96 | 1015.8 | |
| 20260906070009 | 64 | 0.0 | 0.0 | 0.00 | 0.03 | 0.00 | 96 | 1015.8 | |
| 20260906064508 | 64 | 0.0 | 0.0 | 0.00 | 0.03 | 0.00 | 96 | 1015.6 | |
| 20260906063008 | 64 | 0.0 | 0.0 | 0.00 | 0.03 | 0.00 | 96 | 1015.5 | |
| 20260906061507 | 64 | 0.0 | 0.0 | 0.00 | 0.03 | 0.00 | 96 | 1015.9 | |
| 20260906060015 | 64 | 0.0 | 0.0 | 0.00 | 0.03 | 0.00 | 96 | 1015.9 | |
| 20260906054505 | 64 | 0.0 | 0.0 | 0.00 | 0.03 | 0.00 | 96 | 1015.6 | |
| 20260906053010 | 64 | 0.0 | 0.0 | 0.00 | 0.03 | 0.00 | 95 | 1016.1 | |
| 20260906051505 | 65 | 0.0 | 0.0 | 0.00 | 0.03 | 0.00 | 95 | 1015.9 | |
| 20260906050004 | 65 | 0.0 | 0.0 | 0.00 | 0.03 | 0.00 | 95 | 1016.0 | |
| 20260906044559 | 65 | 0.0 | 0.0 | 0.00 | 0.03 | 0.03 | 95 | 1015.9 | |
| 20260906043058 | 66 | 0.0 | 0.0 | 0.00 | 0.03 | 0.03 | 94 | 1016.2 | |
| 20260906041559 | 66 | 0.0 | 0.0 | 0.00 | 0.03 | 0.03 | 94 | 1016.1 | |
| 20260906040058 | 66 | 0.0 | 0.0 | 0.00 | 0.03 | 0.03 | 94 | 1015.9 | |
| 20260906034558 | 66 | 0.0 | 0.0 | 0.00 | 0.03 | 0.03 | 93 | 1015.9 | |
| 20260906033057 | 66 | 0.0 | 0.0 | 0.00 | 0.03 | 0.03 | 93 | 1015.6 | |
| 20260906031603 | 67 | 0.0 | 0.0 | 0.00 | 0.03 | 0.03 | 93 | 1015.6 | |
| 20260906030057 | 67 | 0.0 | 0.0 | 0.00 | 0.03 | 0.03 | 92 | 1015.5 | |
| 20260906024557 | 67 | 0.0 | 0.0 | 0.00 | 0.04 | 0.03 | 92 | 1015.5 | |
| 20260906023059 | 68 | 0.0 | 0.0 | 0.00 | 0.04 | 0.03 | 91 | 1015.4 | |
| 20260906021555 | 68 | 0.0 | 0.0 | 0.00 | 0.04 | 0.03 | 91 | 1015.4 | |
| 20260906014555 | 68 | 0.0 | 0.0 | 0.00 | 0.04 | 0.03 | 90 | 1015.3 | |
| 20260906013054 | 69 | 0.0 | 0.0 | 0.00 | 0.04 | 0.03 | 90 | 1015.4 | |
| 20260906011554 | 69 | 0.0 | 0.0 | 0.00 | 0.04 | 0.03 | 90 | 1015.2 | |
| 20260906010054 | 69 | 0.0 | 0.0 | 0.00 | 0.04 | 0.03 | 90 | 1014.9 | |
| 20260906004553 | 69 | 0.0 | 0.0 | 0.00 | 0.04 | 0.03 | 90 | 1014.2 | |
| 20260906003053 | 70 | 0.0 | 0.0 | 0.00 | 0.04 | 0.03 | 89 | 1013.9 | |
| 20260906001552 | 70 | 0.0 | 0.0 | 0.00 | 0.04 | 0.03 | 88 | 1013.9 | |
| 20260906000053 | 71 | 0.0 | 0.0 | 0.00 | 0.04 | 0.03 | 87 | 1013.6 | |
| 20260905234553 | 71 | 0.0 | 0.0 | 0.01 | 0.04 | 0.03 | 85 | 1013.4 | |
| 20260905233052 | 72 | 0.0 | 0.0 | 0.01 | 0.04 | 0.03 | 84 | 1013.1 | |
| 20260905231552 | 72 | 0.0 | 0.0 | 0.01 | 0.04 | 0.03 | 83 | 1013.0 | |
| 20260905230054 | 72 | 0.0 | 0.0 | 0.01 | 0.04 | 0.03 | 82 | 1012.9 | |
| 20260905224603 | 73 | 0.0 | 0.0 | 0.01 | 0.04 | 0.03 | 83 | 1013.2 | |
| 20260905223051 | 73 | 0.0 | 0.0 | 0.00 | 0.03 | 0.02 | 82 | 1013.2 | |
| 20260905221557 | 72 | 0.0 | 0.0 | 0.00 | 0.03 | 0.02 | 83 | 1013.4 | |
| 20260905220058 | 72 | 0.0 | 0.0 | 0.00 | 0.03 | 0.02 | 83 | 1013.6 | |
| 20260905214545 | 71 | 0.0 | 0.0 | 0.00 | 0.03 | 0.02 | 86 | 1013.9 | |
| 20260905213043 | 70 | 0.0 | 0.0 | 0.00 | 0.03 | 0.02 | 88 | 1014.0 | |
| 20260905211543 | 69 | 0.0 | 0.0 | 0.00 | 0.03 | 0.02 | 88 | 1014.1 | |
| 20260905210042 | 68 | 0.0 | 0.0 | 0.00 | 0.03 | 0.02 | 89 | 1015.0 | |
| 20260905204542 | 68 | 0.0 | 0.0 | 0.00 | 0.03 | 0.02 | 88 | 1015.1 | |
| 20260905203056 | 68 | 0.0 | 0.0 | 0.00 | 0.03 | 0.02 | 88 | 1015.6 | |
| 20260905201544 | 68 | 0.0 | 0.0 | 0.00 | 0.03 | 0.02 | 89 | 1016.2 |